HODOYOSHI 3

Satellite information

Favourite Embed

Satellite Type and Status

PAYLOADIN ORBIT

Key statistics

Satellite HODOYOSHI 3 at a glance.

Uptime

4099

Days in orbit

Revolutions

≈ 14.8

Per day

Orbit

SSO

Sun Synchronous Orbit

Inclination

97.6

Latest

Satellite identification and parameters

Extended collection of information and parameters for HODOYOSHI 3.

Object identification

Identified? True

Debris? False

Object name: HODOYOSHI 3

International designator: 2014-033F

Object number (NORAD): 40015

Object ID (CCSDS): 40015

Country: JAPAN (JPN)

Current information (Y/N): Y

RCS size: MEDIUM

Orbital parameters

Period: 97.017 minutes

Inclination: 97.6167 deg

SMA: 6993.979 km

Apoapsis: 638.883 km

Periapsis: 592.805 km

RAAN: 60.9714 deg

Eccentricy: 0.00329416

Argument of periapsis: 202.0024 deg

Mean anomaly: 157.9779 deg

Mean motion: 14.84281461 rev/day

Mean motion (dot): 0.00002198 rev/day2

B* drag term: 0.00026588102 1/REarth

Two-line elements (TLE)

Creation date: Sept. 8, 2025, 3:16 a.m.

Reference frame: TEME

Reference center: EARTH

Epoch: Sept. 7, 2025, 9:52 p.m. UTC

TLE line 0: 0 HODOYOSHI 3

TLE line 1: 1 40015U 14033F 25250.91151641 .00002198 00000-0 26588-3 0 9995

TLE line 2: 2 40015 97.6167 60.9714 0032942 202.0024 157.9779 14.84281461605730

Live tracking on map

Real-time ground track for satellite HODOYOSHI 3.

In-orbit conjunctions

There are no conjunctions computed for HODOYOSHI 3, at the moment. Check back to stay up to date, as we update our databases every day.

Go to all conjunctions

Associated space launch

HODOYOSHI 3 was lifted into orbit during the mission ‘Dnepr 1 | Multipayload, 37 satellites.’, on board a Dnepr space rocket.

The launch took place on June 19, 2014, 7:11 p.m. from 370/13.

For more information about the launch, click the button.

Launch to space Dnepr 1 | Multipayload, 37 satellites.
Dnepr 1 | Multipayload, 37 satellites.

Agency: N/A

Status: Launch Successful

Launch date: June 19, 2014, 7:11 p.m. UTC

Rocket: Dnepr

Launch pad: 370/13

Location: Dombarovskiy, Russian Federation

...

Latest news about this satellite

There are no fresh news available about this satellite. Check back as we update our databases every day.


Newsletter sign-up

Weekly statistics, charts and insights to help you stay on top of the space industry.